Terminal Aerodrome Forecast
Issued by NWS

Home | Current Version | Previous Version | Text Only | Print | Product List | Glossary On
Versions: 1 2 3 4 5 6 7 8 9 10 11 12 13 14 15 16 17 18 19 20 21 22 23 24 25 26
000
FTAK31 PAFA 160530
TAFABT
TAF
PABT 160530Z 1606/1706 VRB03KT P6SM -SHRA SCT025 BKN040 OVC100
      TEMPO 1610/1614 4SM -SHRA BR BKN020
     FM161500 15001KT 1/2SM FG BKN004 BKN020
     FM162000 VRB02KT P6SM BKN025=

USA.gov is the U.S. government's official web portal to all federal, state and local government web resources and services.